DMSP 5D-2 F13 DEB, 40509

Orbit data source: Space-Track

DMSP 5D-2 F13 DEB, 40509 is space debris in SSO originally from a launch on Fri, 24 Mar 1995 UTC launched from the Air Force Western Test Range (AFWTR). Debris objects in space refer to the collection of defunct objects orbiting the Earth. Examples of debris include non-operational satellites, rocket bodies, and fragments generated from explosions, collisions, or faulty payload assembly.

Loading next visibility...
Identifier
40509, 1995-015CV
Orbit
SSO
Country
Flag of USUS
Related business
Manufacturer
Unknown
Mission
Spacecraft
Bus & Motor
Unknown
Mass
Unknown
Launch date (UTC)
1995-03-24 (31 years ago)
Launch vehicle
Unknown
Launch site
Air Force Western Test Range (AFWTR)
Object type
Payload
Rocket body
Debris
Shape & HBR
Unknown shape, 0.1 m
Radar Cross Section
Small (<0.1 m²)

Expand to show TLE details & history
Last TLE update: 4 days ago

TLE from 4 days ago
0 DMSP 5D-2 F13 DEB
1 40509U 95015CV  26011.97503672  .00000451  00000-0  22012-3 0  9997
2 40509  98.6530  30.9682 0024074  69.9911 290.3857 14.22723921560436
Epoch: 2026-01-11T23:24Z
TLE epoch observation values (Epoch: 2026-01-11T23:24:03.172Z)
Latitude
0.00003°
Longitude
-71.5234°
Altitude
813.078 km
Speed
7.45 km/s
True Right ascension
02h 03m 52s
True Declination
0° 00' 00"
Sunlit
Object was in daylight at epoch
Visualization orbit readout
Latitude
Unknown
Longitude
Unknown
Altitude
Unknown
Speed
Unknown
Apparent Right ascension
Unknown
Apparent Declination
Unknown
Sunlit
N/A
Visualization observer readout
Local Sidereal Time
10:37:30
Azimuth
Unknown
Elevation
Unknown
Doppler factor
Unknown
Orbital elements
Apogee altitude
830.62 km
Perigee altitude
795.995 km
Semi-major axis
7,191.445 km
Eccentricity
0.00241
Inclination
98.653°
RAAN
30.9682°
Arg. of periapsis
69.9911°
True anomaly
290.12684°
Mean anomaly
290.3857°
Eccentric anomaly
290.2563°
Mean motion
3.55893 °/min
Orbital period
101.15 mins
BSTAR
0.00022012
Loading maneuver chart data...
Computing Atmospheric mass density...

Documentation

Showing up to 5 results
|